Location: Hylvaty SDH
(49.9612°N, 16.4057°E)
Time: 12:15:56
(UTC+01:00)

A-11 Canister half - Pass Details

Date: 05 October 2020
Orbit: 1526 x 1683 km, 47.3° (Epoch: 28 October)

Event Time Altitude Azimuth Distance (km) Brightness Sun altitude
Rises 22:29:31 0° 240° (WSW) 4,671 11.7 -37.2°
Reaches altitude 10° 22:32:34 10° 237° (WSW) 3,688 11.1 -37.5°
Enters shadow 22:36:32 29° 229° (SW) 2,503 10.0 -38.0°
Maximum altitude 22:41:40 63° 159° (SSE) 1,680 - -38.5°
Drops below altitude 10° 22:50:56 10° 82° (E) 3,750 - -39.4°
Sets 22:54:04 0° 79° (E) 4,754 - -39.7°
